Location: Gorze? G�rny
(49.8500°N, 19.5000°E)
Time: 05:22:14
(UTC+00:00)

Cosmos 1812 - Pass Details

Date: 13 May 2021
Orbit: 514 x 521 km, 82.5° (Epoch: 20 June)

Event Time Altitude Azimuth Distance (km) Brightness Sun altitude
Exits shadow 20:17:10 - 209° (SSW) 2,239 5.7 -14.8°
Reaches altitude 10° 20:18:23 10° 215° (SW) 1,757 5.2 -14.9°
Maximum altitude 20:22:02 40° 285° (WNW) 787 4.0 -15.2°
Drops below altitude 10° 20:25:43 10° 357° (N) 1,771 6.4 -15.5°
Sets 20:27:58 0° 5° (N) 2,664 7.2 -15.7°
